This demonstration page uses our WeatherBlox Daily Observations layout. Learn more.

Left ArrowRight Arrow

Hourly Observations for May 3, 2020

Temp ( °F °C ) Dew Point ( °F °C ) Humidity (%) Winds ( mph kmh ) Pressure ( in mb ) Visibility ( mi km ) Precip ( " mm )
12:52 am 00:52 Mostly Cloudy 71 21.7 63 17.2 76 76 SW 8 13 29.88 1012 10 16 0.00 0.00
1:52 am 01:52 Mostly Cloudy 71 21.7 63 17.2 76 76 SW 7 11 29.88 1012 10 16 0.00 0.00
2:52 am 02:52 Cloudy 70 21.1 63 17.2 79 79 WSW 5 7 29.87 1012 10 16 0.00 0.00
3:52 am 03:52 Partly Cloudy 69 20.6 63 17.2 81 81 W 3 6 29.87 1012 10 16 0.00 0.00
4:52 am 04:52 Cloudy 67 19.4 62 16.7 84 84 Calm 29.87 1012 10 16 0.00 0.00
5:52 am 05:52 Cloudy 67 19.4 63 17.2 87 87 Calm 29.88 1012 10 16 0.00 0.00
6:19 am 06:19 Cloudy 68 20 63 17.2 84 84 Calm 29.89 1012 10 16 0.00 0.00
6:52 am 06:52 Cloudy 69 20.6 64 17.8 84 84 Calm 29.89 1012 10 16 0.00 0.00
7:52 am 07:52 Mostly Cloudy 69 20.6 61 16.1 76 76 NE 9 15 29.90 1013 10 16 0.00 0.00
8:06 am 08:06 Mostly Cloudy 68 20 60 15.6 76 76 NNE 10 17 29.90 1013 10 16 0.00 0.00
8:52 am 08:52 Cloudy 68 20 58 14.4 70 70 NE 5 7 29.93 1013 10 16 0.00 0.00
9:52 am 09:52 Mostly Cloudy 66 18.9 57 13.9 73 73 NNE 8 13 29.93 1014 10 16 0.00 0.00
10:00 am 10:00 Mostly Cloudy 67 19.4 56 13.3 68 68 NNE 3 6 29.95 1014 10 16 0.00 0.00
10:18 am 10:18 Cloudy with Thunderstorms 66 18.9 56 13.3 70 70 NNW 7 11 29.98 1015 10 16 0.00 0.00
10:33 am 10:33 Cloudy with Strong Thunderstorms 56 13.3 53 11.7 90 90 NNW 22 35 30.05 1017 1 1 0.15 3.81
10:37 am 10:37 Cloudy with Strong Thunderstorms 56 13.3 54 12.2 93 93 NNW 15 24 30.04 1017 1 2 0.39 9.91
10:44 am 10:44 Cloudy with Thunderstorms 57 13.9 55 12.8 93 93 N 25 41 29.99 1016 3 5 0.53 13.46
10:52 am 10:52 Windy with Storms Likely 57 13.9 56 13.3 96 96 NNE 23 37 29.93 1014 9 14 0.54 13.72
11:02 am 11:02 Cloudy with Nearby Thunderstorms 58 14.4 56 13.3 93 93 NE 16 26 29.91 1013 10 16 0.00 0.00
11:29 am 11:29 Cloudy with Light Rain 59 15 57 13.9 93 93 S 13 20 29.91 1013 10 16 0.00 0.00
11:52 am 11:52 Partly Cloudy with Light Rain 58 14.4 56 13.3 93 93 SSE 14 22 29.89 1012 10 16 0.00 0.00
11:59 am 11:59 Mostly Sunny 58 14.4 56 13.3 93 93 SSE 14 22 29.91 1013 10 16 0.00 0.00
12:52 pm 12:52 Sunny 62 16.7 59 15 90 90 SSW 9 15 29.89 1012 10 16 0.00 0.00
1:41 pm 13:41 Mostly Cloudy 65 18.3 59 15 81 81 NNW 10 17 29.93 1014 10 16 0.00 0.00
1:52 pm 13:52 Mostly Cloudy 66 18.9 59 15 78 78 NNW 8 13 29.93 1013 10 16 0.00 0.00
2:23 pm 14:23 Cloudy 65 18.3 59 15 81 81 NNW 8 13 29.93 1014 10 16 0.00 0.00
2:52 pm 14:52 Mostly Cloudy 67 19.4 59 15 76 76 VRB 5 7 29.92 1013 10 16 0.00 0.00
3:14 pm 15:14 Cloudy 66 18.9 58 14.4 75 75 NNW 5 7 29.92 1013 10 16 0.00 0.00
3:52 pm 15:52 Cloudy 67 19.4 59 15 76 76 N 6 9 29.92 1013 10 16 0.00 0.00
4:52 pm 16:52 Mostly Cloudy 70 21.1 59 15 68 68 NE 6 9 29.91 1013 10 16 0.00 0.00
5:52 pm 17:52 Cloudy 69 20.6 58 14.4 68 68 ENE 7 11 29.91 1013 10 16 0.00 0.00
6:52 pm 18:52 Cloudy 68 20 58 14.4 70 70 NE 8 13 29.91 1013 10 16 0.00 0.00
7:52 pm 19:52 Mostly Cloudy 67 19.4 57 13.9 71 71 E 5 7 29.93 1013 10 16 0.00 0.00
8:52 pm 20:52 Mostly Clear 65 18.3 57 13.9 76 76 E 5 7 29.94 1014 10 16 0.00 0.00
9:52 pm 21:52 Mostly Clear 64 17.8 56 13.3 75 75 E 5 7 29.95 1014 10 16 0.00 0.00
10:52 pm 22:52 Mostly Cloudy 63 17.2 57 13.9 81 81 E 5 7 29.97 1015 10 16 0.00 0.00
11:52 pm 23:52 Mostly Cloudy 63 17.2 56 13.3 78 78 NE 5 7 29.98 1015 10 16 0.00 0.00

Powered by AerisWeather